RH
58 55 55 60 67 66 71 88 100 102 100 99 101 101 101 101 98 98 99 89 64 44 45 52 50 48 53 61 65 68 69 66 63 61 59 57 57 55 56 56 52 48 46 44 44 46 47 47 47 47 46 46 45 45 45 45 45 46 47 50 53 57 62 69 77 82 84 87 91 95 95 92 89 85 83 83 83 82 79 76 74 75 82 88 88
69 73 67 54 56 62 62 68 86 103 104 98 100 101 101 103 101 98 98 89 69 50 45 50 54 54 57 68 75 79 83 78 68 64 63 61 62 62 63 64 62 58 53 50 50 51 50 50 49 49 49 49 49 48 47 46 45 46 47 48 48 49 51 59 70 79 84 86 86 87 87 86 84 82 80 80 80 79 77 77 77 72 70 74 77
62 74 75 59 53 57 57 56 65 88 103 102 99 100 100 102 104 102 99 92 78 63 57 60 65 66 69 78 82 85 91 80 62 59 61 61 65 70 69 66 64 65 64 63 62 61 57 56 55 55 54 54 54 54 53 51 48 47 47 47 47 48 49 51 58 66 73 79 80 80 78 77 76 75 75 78 79 78 77 77 79 77 72 68 71
66 69 72 65 58 54 53 53 54 66 89 101 101 99 101 103 106 106 102 96 85 74 70 77 85 85 82 84 89 95 93 73 56 57 62 64 69 71 66 59 58 63 68 69 69 67 64 63 63 63 62 60 59 58 57 58 57 54 52 51 51 51 51 51 52 54 57 61 64 66 66 64 62 62 64 69 71 72 72 73 76 80 77 71 74
91 89 89 88 83 72 60 56 56 59 74 94 103 101 100 102 103 104 101 94 86 80 79 88 97 100 97 96 96 95 84 65 57 61 67 68 68 66 60 53 53 59 66 69 70 69 69 69 70 69 67 66 64 62 62 64 65 64 63 64 63 59 57 57 57 55 54 52 51 52 53 53 51 52 57 62 64 68 71 73 75 77 76 71 69
102 104 99 95 93 89 78 67 62 61 64 79 97 103 102 101 102 102 99 93 88 86 84 82 81 85 89 89 87 82 71 61 58 62 69 69 65 62 60 57 59 65 71 77 78 78 79 79 78 75 72 72 74 73 73 74 75 73 71 71 71 66 63 63 62 60 58 56 53 51 49 50 51 54 60 66 68 70 73 74 74 74 74 74 71
96 107 103 94 84 78 76 72 71 72 67 68 84 100 104 102 101 101 99 95 93 91 86 76 69 72 77 77 74 68 59 56 59 63 66 64 60 60 64 68 75 81 85 90 90 90 89 86 82 79 78 82 86 86 82 77 74 71 67 66 67 63 60 61 60 58 56 54 53 53 52 52 53 55 60 64 65 65 65 65 66 68 70 71 72
82 92 99 101 92 78 68 63 64 71 74 74 82 95 102 103 104 104 103 101 99 95 87 77 75 79 76 71 66 58 53 62 72 74 70 67 66 69 75 83 89 93 97 98 97 93 89 84 81 80 82 86 87 85 79 71 67 66 63 61 62 61 60 60 60 59 57 55 54 56 58 58 56 56 57 59 60 60 60 60 62 65 66 66 66
73 79 85 93 98 96 87 79 79 82 85 88 89 88 90 94 98 101 102 100 95 91 85 81 82 80 72 65 60 58 65 77 82 83 82 81 81 85 90 94 93 93 93 93 91 87 80 76 75 76 79 84 84 81 78 72 69 69 67 64 65 69 72 72 71 69 66 66 64 61 62 62 60 59 57 56 58 60 62 61 61 61 61 59 57
78 85 87 87 93 101 101 99 101 99 96 95 91 84 80 78 78 84 90 88 83 82 83 82 83 82 77 71 69 73 80 84 87 93 96 94 94 97 99 98 97 95 92 89 84 78 73 72 74 74 79 87 87 82 78 74 71 73 79 82 83 83 85 85 82 77 74 73 72 67 64 62 58 56 58 59 59 60 62 62 59 57 55 53 52
90 94 94 93 96 102 103 102 103 103 101 99 97 94 88 79 73 78 87 88 88 91 92 90 91 95 94 87 84 90 93 92 96 100 96 94 97 100 98 98 100 101 99 96 91 86 86 88 89 88 93 99 94 82 73 70 73 81 90 98 97 89 88 91 87 82 77 72 68 68 68 70 69 64 58 57 57 56 57 59 58 56 52 50 50
90 92 90 90 93 95 95 96 97 99 100 99 99 98 94 87 81 81 85 89 94 98 98 96 94 97 100 98 95 97 98 102 104 98 94 97 98 98 97 93 94 101 102 101 99 98 99 101 99 98 99 102 102 94 83 77 83 90 95 101 101 91 89 91 87 83 79 70 62 60 63 75 88 83 64 51 50 50 49 52 54 55 52 49 50
86 87 85 84 86 87 87 87 89 91 91 90 93 94 95 95 94 90 87 88 90 88 86 87 88 90 97 101 100 98 99 108 110 99 97 102 99 99 101 93 90 98 100 100 100 100 100 101 100 99 98 98 100 101 97 92 89 89 89 96 103 99 96 96 93 92 88 74 61 55 55 67 84 86 71 55 50 51 53 53 52 50 50 49 51
83 82 82 83 84 86 88 89 90 92 90 87 88 89 90 94 97 95 93 94 96 92 86 87 90 94 98 99 98 96 97 106 111 103 98 100 99 100 103 98 96 99 100 100 100 99 100 102 99 98 99 100 99 98 101 101 97 93 88 90 95 95 93 93 91 88 84 73 65 59 54 54 62 67 66 62 58 57 57 58 55 50 49 49 50
81 81 82 83 83 85 88 90 91 92 90 88 88 87 88 90 91 89 88 92 100 104 102 101 100 99 99 98 94 92 89 92 101 104 100 101 102 100 99 99 99 99 100 100 98 96 100 103 102 98 97 100 100 98 100 101 101 101 99 96 93 87 79 75 72 71 69 67 68 67 62 58 59 60 62 64 64 61 57 58 59 54 50 49 49
78 78 77 78 79 79 81 83 84 83 82 81 81 82 84 87 88 88 88 91 96 102 106 109 109 106 106 105 101 98 94 89 92 98 100 103 105 102 100 101 101 100 101 101 101 101 101 101 103 102 99 99 101 100 99 99 96 97 99 101 100 93 80 69 65 67 70 71 73 71 69 71 74 76 77 75 68 61 57 56 58 59 56 54 54
71 70 70 72 73 73 74 75 74 72 73 73 72 72 73 76 79 82 85 89 92 96 100 104 106 108 110 109 103 101 101 99 99 102 102 102 104 104 103 104 105 105 104 103 105 105 102 100 102 103 102 100 99 99 99 99 96 95 96 97 96 93 86 77 72 72 75 78 79 77 75 75 78 82 84 80 69 61 60 60 58 58 58 57 57
60 59 60 60 60 61 61 61 60 61 64 65 64 63 64 66 68 70 72 76 79 83 85 88 90 93 96 97 94 91 93 97 102 105 106 107 108 108 107 104 104 105 104 103 102 102 102 101 102 104 105 101 99 101 102 101 100 101 101 99 96 94 93 91 89 87 84 83 84 85 86 85 85 83 81 75 68 63 63 63 61 59 57 57 56
58 56 53 50 48 47 46 45 45 46 48 50 51 52 52 52 53 55 57 59 61 63 67 69 71 72 72 73 72 70 70 74 78 81 86 91 95 97 98 97 98 100 99 98 99 103 106 106 104 103 100 94 94 98 98 97 99 101 102 101 99 98 99 100 101 101 98 95 93 94 96 95 91 85 80 75 73 69 67 67 66 63 61 61 59
64 59 53 47 43 40 37 35 33 33 34 36 39 40 41 42 44 46 47 49 51 53 55 55 56 56 56 56 55 54 55 59 62 63 65 69 74 77 80 83 86 87 84 83 88 94 99 102 104 100 92 87 90 95 94 91 91 93 96 98 100 101 102 102 100 99 99 100 100 102 102 100 95 89 84 80 77 74 72 72 71 67 64 63 61
79 72 67 62 58 54 50 46 40 35 33 32 33 35 37 39 41 43 45 46 47 49 49 49 49 50 51 52 53 52 53 55 57 59 61 63 64 66 69 71 70 69 67 70 75 78 78 79 81 82 80 81 87 92 93 92 89 88 90 94 97 101 103 102 98 93 91 92 95 98 97 95 91 87 82 77 73 71 71 69 65 60 56 53 51
93 90 87 85 81 76 70 65 58 50 44 43 43 43 45 47 49 51 52 53 53 54 54 55 55 55 57 58 58 58 60 61 60 58 59 60 60 60 62 64 63 62 61 60 61 63 63 63 64 69 76 82 83 83 83 85 85 83 82 82 83 85 89 94 95 94 91 88 86 88 87 84 80 76 71 67 64 63 61 59 56 52 48 45 43
87 89 89 90 89 86 82 79 76 71 67 65 62 59 59 59 59 60 61 62 62 62 63 65 66 67 69 70 67 66 68 71 69 64 60 61 61 59 59 62 66 67 62 58 59 61 60 58 59 63 69 75 75 72 70 70 70 69 66 64 63 64 68 73 78 82 82 78 72 70 69 67 64 62 59 57 54 51 49 50 51 50 49 48 47
95 97 97 97 97 96 94 94 93 91 89 87 84 82 80 78 77 76 75 74 74 75 77 79 80 80 80 79 78 77 79 82 84 79 72 70 71 73 75 76 75 67 56 53 59 64 64 64 65 65 65 67 67 66 66 64 62 60 58 56 56 55 55 56 57 59 61 60 57 55 55 55 55 54 53 52 50 49 49 50 51 53 53 53 53
102 103 104 105 105 104 103 103 102 102 102 100 99 99 97 95 93 91 89 86 86 87 91 94 96 95 92 89 91 95 97 99 101 99 95 92 93 97 103 102 88 67 52 52 58 59 60 65 69 69 69 69 69 70 70 70 68 67 66 66 65 63 61 58 55 54 54 54 54 54 54 54 54 53 53 54 53 52 52 53 56 58 59 58 57
79 81 82 84 85 86 87 87 87 86 85 83 82 81 79 79 78 77 76 75 75 75 77 81 86 87 86 85 88 93 96 98 101 103 103 102 103 106 111 113 100 74 55 54 60 60 61 64 67 68 69 70 70 71 72 73 75 76 77 77 75 73 71 68 66 65 65 65 64 64 65 64 64 63 62 60 59 57 56 58 61 63 63 62 61
70 71 71 71 70 70 69 68 66 65 63 61 59 57 57 57 58 58 59 59 59 59 59 61 66 69 69 70 72 76 80 83 88 91 92 93 98 102 106 107 100 82 66 61 63 64 67 69 69 69 70 70 70 70 70 71 73 75 77 77 76 76 78 79 78 78 80 81 80 80 81 81 79 77 72 68 65 64 65 66 68 67 65 63 60
80 80 80 80 79 78 76 74 72 69 65 60 57 55 53 52 50 49 49 47 46 45 45 47 49 52 54 54 56 60 65 69 73 77 80 82 86 90 94 95 90 83 77 72 70 70 74 75 73 71 69 67 65 65 65 66 67 68 70 71 72 75 79 81 81 83 87 89 90 90 90 89 87 83 78 74 73 73 73 71 68 64 61 56 52
83 81 78 76 74 72 71 69 65 63 60 57 54 53 51 50 47 45 43 42 40 39 39 39 39 40 42 42 42 45 50 54 58 62 67 72 73 73 76 79 78 76 75 76 76 78 78 77 73 69 66 63 60 58 57 58 60 61 63 66 68 71 75 78 80 83 87 89 90 92 93 92 88 85 81 80 81 80 76 71 65 59 53 47 42
70 68 66 65 63 61 59 57 54 52 51 50 48 46 45 44 43 41 40 39 38 37 37 36 35 37 38 37 37 38 40 43 45 48 52 59 63 60 57 57 60 64 68 73 75 75 73 72 70 67 63 60 56 53 53 55 57 60 64 67 70 71 73 74 76 79 83 86 90 92 92 89 86 84 84 84 82 77 70 64 58 51 45 39 35
56 56 55 54 53 51 50 49 48 47 46 45 43 42 41 40 40 39 37 36 34 33 33 32 33 33 34 35 36 36 37 38 40 43 47 50 52 51 46 41 42 47 53 57 60 60 60 63 64 63 59 55 50 49 52 56 59 62 65 68 72 74 75 75 77 81 86 91 94 92 89 87 86 84 81 77 72 65 59 53 47 40 36 33 30
49 49 48 47 46 46 46 45 45 44 43 41 39 38 36 35 34 33 31 29 28 27 26 26 27 27 29 31 32 33 33 35 37 41 45 46 46 44 39 35 35 38 43 48 52 52 51 52 53 51 49 46 45 47 52 56 59 61 63 64 67 70 72 74 78 84 89 93 93 91 89 87 83 76 69 64 59 53 48 43 37 34 31 29 26
43 42 41 40 40 39 39 38 38 37 35 34 32 30 28 27 25 25 24 23 22 21 21 20 21 21 22 24 26 26 27 28 31 35 38 40 40 38 33 31 33 37 40 45 47 47 45 45 44 43 42 42 44 47 49 53 56 58 59 59 60 62 65 68 72 78 82 84 84 83 80 75 67 60 55 52 48 44 40 36 33 30 28 26 23
35 34 33 33 33 32 31 30 29 28 27 25 24 22 21 19 18 17 17 17 17 17 17 17 18 18 19 20 21 22 22 23 24 26 27 29 31 31 30 31 33 36 38 40 41 40 40 40 39 38 38 39 42 44 45 47 48 49 50 52 55 60 64 67 72 76 78 78 76 71 65 59 54 50 48 45 42 39 36 34 31 28 26 25 23
29 28 27 26 25 25 24 23 22 20 19 18 17 15 15 14 13 12 13 13 13 14 15 15 14 14 15 16 17 18 19 20 21 21 21 21 23 24 26 28 30 31 31 31 31 32 33 35 36 36 36 38 40 40 41 40 39 40 43 47 52 56 60 63 65 68 68 67 63 58 54 51 49 46 43 40 38 36 34 32 29 27 26 25 24
25 23 22 21 20 20 19 17 17 16 15 14 13 12 12 11 11 11 11 12 12 12 13 13 14 13 13 14 14 14 16 17 18 18 19 19 19 21 22 23 23 24 23 23 24 26 28 30 32 31 32 34 35 35 35 34 34 35 38 43 48 51 54 56 57 57 57 55 53 51 50 48 45 42 40 38 35 33 32 29 27 26 26 25 25
20 19 18 17 16 16 15 14 13 13 12 12 11 10 10 10 10 10 10 10 11 11 11 11 12 12 13 13 13 13 13 13 14 15 16 18 19 20 22 22 21 21 21 21 21 21 22 22 23 23 24 26 28 28 28 28 30 33 38 43 48 50 51 52 52 52 51 49 49 49 47 44 41 38 36 34 31 30 29 28 26 26 26 25 25
18 17 17 17 16 15 15 14 14 13 12 11 10 10 10 10 9 9 9 9 9 9 10 10 10 11 12 12 12 12 12 12 13 14 15 16 16 17 19 20 20 20 20 20 19 18 18 18 17 18 19 21 21 22 23 25 27 31 36 42 46 47 46 46 46 46 45 44 44 42 39 37 36 34 31 30 29 29 28 27 27 27 27 26 27
20 20 20 19 19 18 17 16 15 13 11 10 10 9 9 9 9 9 9 9 10 9 9 9 9 10 10 11 11 11 11 12 14 14 15 15 15 15 16 16 16 18 20 19 17 17 18 16 15 16 18 19 20 22 23 24 27 30 34 38 40 39 38 38 37 37 36 35 34 33 32 31 30 29 29 29 29 29 29 28 28 28 27 27 28
24 24 24 22 20 19 17 15 13 12 10 9 9 9 9 9 9 10 9 10 11 11 10 10 10 10 11 10 10 11 12 13 14 14 15 15 15 15 16 16 18 20 21 19 16 14 15 16 16 17 18 20 22 24 25 27 29 33 35 36 35 33 31 31 31 30 30 30 29 28 28 29 29 29 30 30 30 30 30 29 29 30 29 28 29
26 25 23 20 18 16 13 12 11 10 10 10 10 10 11 11 11 11 11 11 11 12 12 11 11 11 10 10 10 12 13 14 14 14 15 15 16 16 16 17 18 19 19 17 14 13 15 18 19 18 18 20 23 26 27 30 33 35 35 33 31 30 29 29 29 29 28 29 29 29 29 30 30 31 32 31 31 31 31 30 31 31 31 30 30
25 22 19 15 13 12 11 11 11 11 12 13 13 13 13 13 13 12 11 11 11 11 10 10 9 9 8 8 9 10 12 12 12 12 12 12 13 13 14 15 17 18 18 17 14 14 16 19 20 20 21 23 24 27 31 35 37 36 33 30 29 30 30 31 30 30 30 31 31 32 32 33 33 33 33 33 32 32 32 32 33 33 32 31 31
19 16 13 12 12 12 13 13 15 16 17 16 15 14 14 13 12 11 10 9 9 8 8 7 7 7 7 8 8 8 8 8 8 9 9 9 10 10 11 13 15 15 15 14 13 13 14 17 19 22 24 25 28 32 39 43 41 36 32 31 32 32 33 33 33 34 35 36 36 36 35 35 35 35 34 33 33 34 34 35 35 35 34 32 32
14 13 13 14 14 16 17 18 19 19 19 17 14 13 12 10 9 8 8 8 7 7 7 7 7 7 7 7 7 6 7 7 7 7 7 7 7 8 9 10 11 12 12 12 12 12 13 16 19 22 24 29 35 42 48 49 44 37 33 34 35 35 36 37 38 40 41 40 40 39 38 38 37 36 34 34 35 36 36 37 37 37 35 34 33
14 15 16 18 18 19 20 20 19 18 17 15 12 10 9 9 9 8 8 8 8 8 8 8 8 8 8 7 7 7 7 7 7 7 7 7 7 8 8 8 8 9 9 10 11 12 13 14 17 21 27 35 44 51 54 51 44 38 36 38 38 38 39 41 42 43 44 43 42 40 39 39 38 36 35 35 36 38 39 39 38 38 38 36 35
18 19 21 21 22 21 21 20 18 16 15 13 11 9 9 9 9 9 9 9 9 9 9 9 9 9 9 8 8 9 9 8 8 7 7 8 8 7 7 7 7 7 8 9 10 11 13 14 18 24 33 43 53 59 57 50 42 39 40 41 40 40 42 42 43 44 45 44 43 42 41 40 38 37 36 37 39 41 41 40 40 40 40 39 38
21 23 24 23 22 21 20 19 17 14 13 13 12 11 10 10 10 10 10 10 10 10 10 10 10 10 10 9 9 9 8 8 8 7 8 8 8 7 7 7 7 7 7 8 10 12 15 19 24 31 39 48 58 62 57 47 41 41 41 40 39 40 41 42 44 45 45 44 43 42 41 40 39 38 38 40 42 44 43 42 42 42 42 42 42
23 25 25 25 23 21 20 18 16 14 13 14 14 14 12 12 12 12 11 11 11 10 11 11 11 11 11 10 10 9 8 8 7 7 8 8 7 7 7 7 7 8 8 9 11 15 19 23 29 36 44 52 60 60 53 44 40 39 37 35 36 39 40 42 43 44 43 43 43 42 42 41 40 39 40 43 45 46 45 44 44 45 45 46 46
26 27 27 26 24 22 20 17 16 15 15 14 15 15 15 14 13 13 13 12 12 11 11 12 12 12 12 11 11 10 9 9 8 7 7 7 7 7 7 7 7 7 8 10 12 16 19 23 27 31 37 44 49 49 43 36 32 30 30 32 36 38 39 40 42 42 42 43 42 42 42 42 41 41 43 46 48 48 47 46 47 47 48 50 49
29 29 29 27 25 23 20 18 17 17 17 17 16 16 17 16 15 14 14 14 14 13 13 12 12 12 13 13 12 11 10 10 8 7 7 7 7 7 7 8 8 8 9 11 13 15 17 18 20 21 25 28 31 31 28 25 25 26 29 32 35 36 37 39 40 40 41 42 42 42 43 43 43 45 47 49 49 49 49 49 49 50 52 53 52
29 30 30 29 27 24 21 18 18 19 20 20 18 17 17 18 18 18 17 16 15 15 15 14 14 13 13 13 13 12 11 10 9 8 7 7 7 7 8 8 8 9 10 11 13 15 16 18 19 20 21 23 24 24 24 25 27 29 30 32 34 35 37 38 39 39 40 41 42 43 44 45 47 49 51 50 50 50 51 51 52 53 55 56 54
Wind_Speed
53 55 58 59 60 60 59 58 55 53 51 49 51 53 51 48 46 46 46 48 50 51 49 46 44 44 42 38 35 36 38 41 44 45 45 44 44 43 43 42 42 41 40 39 39 39 40 41 41 42 43 44 45 45 47 48 48 49 50 50 50 50 50 49 49 49 48 48 48 48 49 50 50 50 49 49 49 48 47 47 46 46 45 44 43
53 54 57 59 60 60 60 59 57 56 54 52 52 54 55 54 54 53 52 53 54 55 55 52 48 47 46 42 39 39 42 46 49 50 50 49 47 46 45 45 45 45 44 43 42 42 42 42 43 43 44 45 46 46 47 47 49 49 50 50 50 50 50 49 49 49 50 50 50 49 49 49 49 49 49 49 50 51 50 49 49 49 48 47 46
54 54 56 59 60 61 62 61 60 58 57 56 55 56 58 59 60 60 59 58 58 58 58 56 52 50 49 48 46 46 48 52 54 55 55 52 48 46 46 46 46 46 46 46 46 45 44 44 44 44 45 46 46 47 46 47 47 48 48 48 48 49 49 49 50 51 51 51 52 52 51 51 51 51 51 51 52 53 53 53 52 51 51 50 49
56 57 58 60 60 62 63 63 62 60 60 60 59 59 60 62 64 65 65 65 63 62 59 56 54 53 53 53 53 53 55 57 57 57 56 53 50 48 48 48 47 47 48 48 48 48 47 46 45 45 46 46 47 47 47 47 48 47 47 47 47 47 47 47 48 50 51 51 52 53 53 53 54 54 54 55 55 54 54 54 53 53 54 53 52
57 59 61 61 60 61 62 63 63 62 62 62 63 63 63 64 66 68 69 69 68 66 63 59 57 56 56 56 57 58 61 61 59 56 55 53 52 52 51 50 50 50 50 51 51 50 50 49 48 47 47 47 48 48 47 48 48 47 47 48 48 48 47 47 48 50 51 51 52 53 54 54 54 54 55 56 56 55 55 55 54 55 56 56 55
59 60 62 64 64 62 62 62 63 64 64 64 65 66 66 67 68 70 70 71 71 70 69 67 65 63 62 62 63 64 63 61 58 56 54 53 53 54 54 53 53 52 52 53 53 53 52 52 51 50 50 49 49 48 48 48 48 48 48 48 49 48 47 48 50 50 51 52 52 53 53 53 53 52 53 55 55 54 55 56 56 56 57 58 58
60 60 62 65 66 66 65 64 64 65 66 67 67 68 69 70 70 70 71 71 72 72 73 73 72 71 70 69 67 65 63 61 59 57 56 55 54 54 55 55 55 54 54 54 55 55 55 54 53 52 51 51 50 50 49 49 49 49 49 48 50 50 48 48 50 50 51 52 52 53 53 53 53 52 53 54 54 54 54 55 56 57 58 59 59
62 63 65 66 67 68 67 65 65 66 68 69 69 69 71 72 73 74 75 75 76 77 78 78 77 75 72 69 67 66 64 62 59 57 57 56 56 56 56 55 54 54 54 54 55 55 54 54 54 54 53 52 52 51 51 51 50 50 50 49 49 50 49 48 47 48 49 50 50 51 52 52 52 52 53 53 54 54 54 55 55 56 57 58 59
62 64 65 67 68 68 67 65 64 64 66 68 69 70 71 73 75 76 78 79 79 80 80 78 76 74 72 71 70 68 65 61 58 58 58 57 56 55 53 52 51 51 51 51 51 52 53 55 56 56 55 54 54 52 51 51 50 50 50 49 48 48 48 47 46 46 47 48 48 49 50 51 51 51 52 52 52 53 54 55 55 56 57 59 60
58 59 60 62 64 66 67 66 65 65 66 67 69 71 72 74 76 76 77 78 78 78 77 75 74 74 74 74 72 69 64 60 58 57 56 54 53 52 51 51 51 50 49 49 50 52 55 57 57 57 56 55 54 52 50 50 51 51 49 48 46 45 46 46 46 46 46 47 49 49 50 50 50 50 50 51 50 51 53 54 55 56 56 57 58
60 61 61 62 62 64 66 68 68 69 70 71 72 72 73 74 75 76 77 77 78 78 77 76 76 75 75 74 69 63 59 56 55 55 53 51 50 49 48 48 47 47 48 49 50 52 53 54 55 55 55 55 54 52 50 49 50 50 48 45 44 44 45 45 45 45 46 47 49 50 50 51 50 50 51 50 49 48 50 52 54 55 55 55 56
65 66 67 67 67 67 68 69 70 70 71 72 73 74 74 74 74 74 75 75 76 77 77 76 75 73 72 70 64 58 55 56 57 57 55 50 46 44 43 42 43 44 46 48 49 50 51 52 53 53 53 53 53 52 50 49 48 49 48 46 47 48 48 47 47 48 50 52 53 53 53 52 50 49 49 48 46 46 48 50 52 53 54 54 55
66 67 68 68 69 69 70 70 70 70 70 71 72 72 72 72 72 72 72 72 73 74 74 73 72 70 68 66 63 60 58 58 59 57 54 48 43 41 41 41 43 44 45 47 49 50 51 51 51 51 51 50 51 51 50 50 51 51 51 51 52 52 51 51 53 54 57 59 58 55 54 51 48 47 47 47 48 49 50 53 55 55 55 55 55
65 66 67 68 69 70 70 70 71 71 70 70 70 70 70 70 71 71 70 70 72 72 71 71 69 68 67 67 66 64 61 59 57 54 51 50 49 48 50 51 51 49 46 46 46 48 49 52 53 53 53 51 51 51 51 53 56 57 56 56 57 57 57 58 60 61 63 63 60 57 55 52 49 49 51 52 54 55 55 57 59 58 58 58 57
65 66 67 68 69 70 71 72 72 72 72 72 71 71 71 71 72 71 70 70 71 72 72 71 70 69 69 69 67 66 65 63 60 58 56 56 57 58 60 60 58 54 50 48 48 47 48 51 55 56 56 56 55 54 54 56 59 61 61 61 62 64 65 65 65 65 64 63 62 60 59 57 55 56 57 58 59 61 60 58 57 57 58 60 60
66 68 68 69 70 71 71 73 73 73 73 73 73 72 72 73 72 72 71 71 71 72 72 72 71 70 70 69 68 68 68 67 67 67 67 67 66 66 67 66 65 62 60 60 60 58 58 60 63 64 63 61 60 60 60 61 63 64 65 66 67 69 70 68 66 65 64 64 64 63 62 61 62 62 63 63 64 64 62 58 55 55 56 59 61
69 69 69 70 71 71 72 73 74 73 73 73 73 73 73 73 73 73 72 72 73 73 73 73 72 72 72 72 71 71 71 71 72 73 74 74 73 73 74 74 73 72 73 72 71 70 71 72 73 72 71 69 68 68 68 69 69 69 68 68 69 71 71 71 69 67 66 66 66 66 66 66 66 67 67 68 67 65 62 60 57 55 55 57 59
71 71 71 72 73 73 74 75 74 74 74 74 74 73 73 74 74 74 74 74 74 74 75 74 74 74 74 75 75 75 74 74 75 75 76 77 77 78 78 78 76 74 74 75 74 74 75 74 73 74 76 76 75 75 74 73 72 70 70 70 71 71 72 72 72 71 70 69 68 68 68 68 69 69 69 68 67 64 61 60 58 57 57 58 59
73 73 73 73 73 74 74 74 73 72 72 72 72 72 72 72 73 73 73 73 74 74 74 74 74 75 74 75 76 75 74 74 75 75 76 77 77 78 77 75 73 72 71 72 73 75 76 75 73 74 76 76 75 75 75 74 72 71 71 72 72 73 73 73 73 73 73 73 71 70 70 71 71 70 69 68 66 64 62 61 60 59 59 59 60
73 74 74 73 73 72 72 72 71 69 69 68 67 67 67 67 68 68 68 68 69 69 70 70 70 71 71 70 71 71 70 70 71 71 71 72 72 73 72 69 68 70 70 70 71 73 74 75 76 77 78 76 73 73 73 72 72 71 71 71 72 73 74 75 74 73 73 73 73 73 73 73 73 72 70 69 67 66 64 63 63 61 60 60 60
74 74 74 73 73 73 73 73 72 71 69 67 66 65 65 64 65 65 65 65 65 66 66 67 67 67 68 68 68 68 68 68 69 69 69 70 70 70 70 69 69 70 70 69 69 70 72 73 75 77 77 76 73 72 71 70 70 70 69 70 71 72 73 75 74 73 71 71 71 72 72 72 72 71 69 67 65 64 63 62 62 61 59 58 58
75 75 75 75 75 75 76 76 76 75 74 72 70 68 67 67 67 67 67 67 67 67 67 68 68 68 69 70 69 69 69 70 71 71 70 71 71 71 70 71 71 70 70 70 69 69 70 71 71 71 72 71 70 69 68 68 68 67 67 67 67 67 68 70 71 71 70 68 68 68 69 68 67 66 65 64 62 61 61 61 61 61 60 60 59
76 77 77 77 78 78 79 79 79 80 79 78 77 75 74 74 73 72 72 72 71 71 71 71 71 71 71 72 72 70 70 72 74 74 73 73 74 73 72 72 73 74 74 72 69 69 71 72 70 69 69 69 70 69 69 68 67 67 67 66 65 65 65 65 67 68 67 66 65 65 66 66 65 65 64 64 63 62 61 61 62 63 64 64 63
77 78 79 79 80 80 81 81 82 82 83 83 82 81 80 80 79 78 77 76 75 75 74 74 75 75 75 75 74 73 73 74 77 78 77 76 76 76 76 78 80 80 78 72 69 71 73 72 71 71 71 71 71 71 70 70 69 69 68 67 66 66 66 66 66 66 67 66 65 65 65 66 66 66 66 66 66 65 64 64 65 66 67 68 68
79 79 80 80 81 82 83 84 84 85 86 86 86 85 85 84 84 83 83 82 81 79 78 78 78 79 79 78 76 75 75 76 78 81 81 80 79 79 80 85 88 86 79 73 71 72 72 71 71 72 72 73 73 72 72 71 70 70 69 68 68 68 68 68 68 68 68 67 67 67 67 68 69 69 69 69 69 69 68 67 68 69 70 71 72
81 81 82 83 84 85 85 86 87 87 88 88 88 88 88 87 87 87 86 86 85 84 83 82 81 82 83 82 79 78 78 78 79 82 82 81 81 81 83 89 93 90 83 77 75 74 72 72 73 73 73 74 74 74 73 72 72 71 71 71 71 70 70 70 70 69 69 69 69 69 70 70 71 72 72 72 73 72 71 71 72 73 73 74 74
83 83 84 85 86 87 88 88 89 89 90 90 89 89 89 89 88 88 88 88 87 86 85 84 83 84 85 84 82 81 81 81 81 83 84 83 83 84 87 92 95 94 89 85 83 80 78 78 77 77 76 77 76 76 75 74 74 73 73 72 72 72 71 72 71 71 71 71 72 72 72 73 74 75 75 76 75 75 74 75 75 75 75 74 73
87 88 88 89 89 90 91 92 92 92 93 92 92 91 91 91 91 90 90 90 89 87 86 85 85 85 86 86 84 82 81 82 83 84 85 86 87 88 90 93 96 95 93 91 89 87 85 84 83 82 81 80 79 78 77 76 75 75 74 73 73 72 73 73 73 72 73 73 74 74 75 76 77 77 78 78 78 77 77 77 76 75 74 73 72
92 92 92 93 93 93 94 94 95 94 94 94 94 93 93 93 93 92 91 90 89 88 86 86 84 83 85 87 86 82 81 82 83 84 85 88 91 93 93 94 95 95 93 92 91 90 89 88 87 86 84 83 81 80 78 77 76 75 74 73 73 73 73 74 73 73 74 75 75 76 77 78 79 79 79 78 78 79 78 78 76 75 74 72 71
94 94 94 95 95 95 95 95 95 94 94 93 93 92 91 91 91 91 91 90 88 87 86 85 83 82 83 86 85 83 82 82 82 83 85 88 92 97 98 96 94 92 92 91 91 91 91 90 89 88 87 86 84 81 79 78 77 76 75 74 74 74 74 74 74 74 74 75 76 77 78 79 78 78 78 78 78 78 78 77 76 75 74 72 71
93 94 94 94 94 94 94 94 94 93 93 92 92 91 90 89 89 90 90 89 87 86 85 84 82 81 81 83 84 83 82 81 81 81 84 89 93 98 101 98 93 90 90 90 91 91 91 90 90 90 89 87 85 82 81 80 79 78 77 76 75 75 75 74 74 74 74 75 76 77 77 78 78 78 78 78 78 78 77 76 75 74 72 71 69
91 91 91 91 91 91 91 91 91 92 91 91 90 90 89 88 88 88 89 88 86 85 84 83 82 80 79 80 83 84 83 81 80 81 85 91 95 99 101 98 93 88 87 87 89 91 91 91 91 90 89 87 85 83 82 81 80 79 78 77 76 75 75 74 73 73 74 75 76 77 77 77 77 77 77 77 77 77 76 76 74 72 70 69 66
88 88 88 87 88 88 88 88 89 89 89 88 88 88 87 86 85 84 84 84 83 82 81 79 78 77 76 77 79 81 81 81 81 83 87 91 96 99 99 95 90 87 86 86 89 91 91 91 91 90 88 87 85 84 82 82 81 80 79 77 76 75 75 74 73 73 74 75 75 76 76 77 77 76 76 76 76 76 75 74 72 69 67 65 62
85 85 84 84 84 84 84 84 84 84 84 83 82 82 81 80 79 77 76 76 76 75 75 74 73 71 71 71 73 76 77 78 79 82 85 89 92 94 94 92 89 87 87 87 89 90 90 90 91 90 88 86 85 85 84 82 81 80 78 76 75 75 75 74 73 74 74 76 76 77 77 76 76 76 76 75 75 74 72 71 69 66 63 61 57
81 80 79 78 78 78 78 78 78 78 78 77 77 76 75 74 73 71 70 70 70 70 70 71 69 68 68 69 70 72 73 74 75 78 81 83 85 86 87 87 86 87 87 87 87 86 87 88 89 88 87 86 86 86 84 83 81 79 77 76 75 75 75 74 74 74 75 76 77 77 77 77 76 76 75 74 72 71 69 68 65 62 58 55 52
76 76 75 74 74 74 74 74 74 74 74 73 73 72 71 69 68 66 65 65 65 65 66 66 65 64 66 67 68 69 70 72 73 74 75 76 78 78 80 81 82 83 83 82 82 82 82 83 85 85 84 84 85 84 83 82 80 78 77 76 76 76 76 75 74 75 76 76 76 76 76 75 75 74 72 71 69 67 65 63 59 55 52 50 47
72 72 71 71 71 70 70 70 70 70 69 69 68 67 65 65 63 61 61 61 61 61 61 61 60 61 64 65 65 66 68 68 70 70 71 72 72 72 73 76 77 78 77 77 78 78 78 78 78 78 78 79 80 79 79 78 77 76 76 76 76 77 76 74 73 74 74 74 73 73 73 72 71 70 68 66 64 61 58 55 52 49 47 45 43
67 67 67 67 67 67 66 66 66 66 66 65 64 62 61 61 60 58 57 58 58 57 57 57 57 58 60 60 62 63 64 63 64 65 66 68 68 68 70 72 74 74 73 74 74 73 73 72 70 69 70 71 71 72 72 72 72 72 71 72 74 74 73 71 71 71 70 69 69 69 68 67 66 64 62 59 56 53 51 49 47 45 44 42 40
63 64 64 64 64 64 64 64 64 64 63 62 61 60 59 58 57 56 55 55 55 55 55 55 55 55 55 57 59 60 58 58 59 61 63 64 65 66 67 68 68 68 69 71 72 70 69 68 65 63 63 63 63 63 64 64 64 63 64 65 67 68 67 66 65 65 64 63 63 62 61 59 58 56 53 51 49 47 46 45 43 41 41 39 37
61 61 61 61 61 62 62 62 62 61 60 59 58 57 56 55 54 53 52 52 52 53 53 52 52 52 53 55 55 53 53 54 56 57 58 60 62 63 63 62 62 63 65 69 70 67 63 62 61 59 57 57 56 57 57 55 54 55 56 58 60 61 59 58 58 57 57 56 56 55 53 51 49 48 47 45 44 43 43 41 40 39 38 36 34
58 58 59 59 59 59 59 58 58 57 56 55 55 54 53 52 51 51 50 49 49 49 50 50 50 51 52 51 48 46 49 52 54 55 55 57 58 59 59 58 59 61 64 67 66 61 58 58 58 56 53 52 52 53 51 49 49 51 53 54 55 55 53 52 52 51 51 50 49 48 46 45 44 44 43 42 42 41 40 39 37 36 36 34 32
55 55 56 55 55 55 54 54 53 52 51 51 51 50 49 49 49 48 47 47 46 47 47 49 49 49 48 45 43 44 48 52 53 53 53 54 55 55 55 55 56 59 61 62 61 57 54 54 54 52 51 50 49 48 47 47 49 51 52 52 50 49 48 48 48 47 46 45 44 44 43 43 42 41 41 40 40 39 38 37 35 35 34 33 31
52 52 52 52 51 50 49 49 48 47 48 49 48 47 46 46 46 45 45 44 44 44 45 46 45 44 43 43 43 44 47 50 50 50 51 51 51 50 50 52 54 56 57 57 56 53 51 49 49 49 48 46 44 44 45 48 50 52 51 49 47 46 46 45 45 44 43 43 43 42 42 41 40 40 39 38 38 37 36 35 34 33 33 32 30
48 48 48 47 47 46 45 44 44 44 45 46 46 44 43 43 43 42 41 41 41 41 42 42 41 40 40 42 43 43 43 44 46 47 48 47 47 46 47 49 50 52 52 52 50 48 47 46 46 45 43 40 40 43 46 49 51 51 49 46 45 45 44 43 43 42 42 42 42 41 40 39 39 39 38 37 36 35 34 33 32 32 32 31 29
45 45 44 44 43 42 41 41 41 41 41 43 44 41 39 40 40 39 38 38 38 38 39 39 38 37 38 39 39 39 39 40 42 44 44 43 43 43 44 46 47 47 47 46 45 44 44 42 41 39 37 37 39 43 47 50 52 50 47 45 44 43 43 42 41 41 41 41 40 39 39 38 38 37 36 35 34 33 33 32 31 31 31 30 29
41 41 41 41 40 40 39 38 38 38 38 39 41 40 37 36 37 37 36 36 36 36 36 36 36 36 36 36 36 36 36 38 39 40 39 40 41 42 42 43 43 42 41 40 39 38 36 34 32 32 33 36 39 44 49 52 51 48 46 45 44 42 42 41 40 40 40 39 39 38 38 37 37 36 35 33 32 32 32 31 30 30 30 29 28
38 38 39 38 38 37 36 36 36 36 35 36 37 38 36 34 34 35 35 34 34 34 34 34 34 34 34 34 34 34 34 35 36 36 36 37 39 40 40 39 38 37 36 34 33 31 30 29 30 32 35 38 42 47 51 52 50 47 46 45 43 42 41 40 39 39 39 39 38 37 37 36 35 34 33 32 31 31 31 30 30 29 29 29 28
36 36 36 36 36 35 35 34 34 34 34 33 34 35 35 34 32 32 33 33 32 32 31 31 31 32 32 32 32 32 32 32 33 33 34 35 36 37 36 36 35 34 32 31 30 30 32 33 35 36 38 41 45 49 52 52 50 48 47 44 42 40 39 38 38 38 38 38 37 37 36 35 34 33 31 30 30 30 30 30 29 29 28 28 28
35 34 34 35 35 34 33 33 33 33 33 33 32 32 33 33 31 30 30 31 30 30 29 29 29 29 30 30 31 30 29 30 31 32 32 33 33 33 33 34 33 32 30 31 33 36 38 40 42 44 45 47 49 52 52 51 49 47 44 42 40 39 39 38 38 38 38 37 37 36 35 34 33 31 30 30 30 30 30 29 29 28 28 28 28
33 33 33 34 34 33 32 31 31 32 32 32 30 29 29 30 30 29 28 28 28 28 28 27 27 27 28 28 29 28 28 28 29 30 30 31 31 31 31 31 30 30 30 32 35 38 40 42 44 45 47 49 50 51 50 48 45 43 41 40 39 39 38 38 38 38 37 37 36 35 34 33 32 30 30 29 29 29 29 29 29 28 28 28 28
33 33 32 32 32 32 31 30 29 29 30 30 30 28 27 26 27 27 27 26 25 25 26 26 26 26 26 26 27 27 27 27 28 28 29 29 29 29 29 29 29 29 30 32 35 36 38 39 40 41 43 45 46 46 45 43 42 41 40 39 39 38 38 38 38 37 37 36 35 34 33 32 31 30 30 30 29 29 29 29 29 28 28 28 28
Wind_Direction
261 259 259 259 258 259 259 259 258 256 254 253 253 253 254 257 258 260 263 265 267 270 271 269 267 266 270 277 281 285 288 288 286 283 278 276 276 276 277 278 278 277 277 277 278 278 277 276 275 274 273 272 271 270 269 268 267 266 265 264 264 263 263 264 264 264 264 264 264 264 263 263 264 264 265 266 267 267 267 267 267 267 266 266 267
261 260 260 260 259 259 260 259 258 256 254 251 251 250 251 254 256 257 260 263 266 269 270 272 272 268 268 271 276 282 289 290 288 285 282 278 277 276 275 276 277 277 277 278 279 279 278 277 275 275 274 274 273 272 270 269 268 266 266 266 265 265 264 265 265 264 264 265 264 263 263 264 264 264 265 267 268 268 268 267 267 266 266 266 266
262 261 260 260 260 260 260 259 258 257 255 252 251 251 251 253 255 257 259 262 265 267 269 270 272 270 267 267 271 279 287 289 287 285 282 279 275 274 275 276 276 276 276 277 278 279 278 277 275 275 274 274 273 273 272 270 269 267 267 266 266 265 264 265 265 265 265 266 266 265 265 265 265 266 266 266 267 268 269 269 268 268 267 267 267
260 260 260 260 260 260 260 260 259 257 256 253 252 252 252 254 255 258 260 261 263 265 266 268 270 270 268 267 268 275 283 286 286 284 282 278 273 272 275 277 278 278 278 278 279 279 278 277 276 276 275 274 274 273 272 271 269 268 267 267 267 266 266 265 266 266 266 266 266 266 266 266 266 267 266 266 265 266 267 268 269 268 267 267 267
259 258 259 259 258 258 259 260 260 259 257 255 253 253 254 255 256 258 260 261 262 262 262 265 268 268 268 268 269 276 282 284 284 283 281 277 273 272 276 279 280 281 280 280 281 280 280 280 279 279 278 277 276 275 273 272 271 270 269 269 268 266 266 266 266 266 267 266 266 266 266 267 267 266 266 265 265 265 266 266 266 266 267 266 265
257 257 257 257 256 256 256 258 259 259 259 257 255 254 254 255 257 258 259 260 261 261 262 265 268 269 270 272 274 278 281 281 282 281 279 276 274 275 278 281 282 282 282 282 282 282 282 283 283 283 282 281 279 277 275 274 273 273 271 271 270 268 266 266 266 266 266 266 266 266 266 266 265 265 265 265 264 265 265 265 265 265 265 265 264
252 252 254 255 256 256 255 256 257 259 260 259 258 256 255 256 257 258 259 259 260 261 264 267 270 272 274 275 276 278 278 280 281 280 278 277 276 278 280 282 282 282 282 282 282 282 283 284 284 284 283 281 279 277 276 276 275 274 273 272 272 271 269 267 267 266 265 265 265 266 266 265 264 264 264 264 264 264 265 265 265 265 265 264 264
248 248 249 251 254 256 257 257 257 258 259 259 258 257 257 257 257 258 259 260 262 264 266 268 271 273 274 275 276 277 279 280 280 278 278 278 278 279 280 280 280 280 280 280 281 282 283 284 285 284 282 281 279 278 278 278 277 276 274 273 272 271 269 268 267 267 266 265 264 264 265 265 265 264 264 264 265 265 265 265 265 265 265 265 264
249 249 248 248 250 253 256 257 258 258 258 257 257 257 258 258 259 260 261 262 264 265 267 269 270 272 274 275 277 279 280 280 278 278 278 279 279 279 278 278 279 279 279 279 280 282 284 285 285 284 283 281 280 279 279 278 277 274 272 270 269 268 268 268 267 267 267 267 265 264 264 265 265 266 265 265 265 265 265 265 265 265 265 266 265
250 249 249 249 249 250 252 253 255 256 256 257 257 259 260 260 261 261 263 264 265 266 268 270 271 273 275 276 278 279 279 278 278 279 278 278 278 276 276 277 278 279 279 279 281 284 287 287 286 284 283 281 279 279 278 276 274 272 270 269 268 267 267 267 267 267 267 267 266 266 265 266 266 266 266 267 267 267 268 267 267 267 266 266 267
251 250 250 251 251 251 251 251 252 253 255 256 257 259 260 260 261 261 263 264 265 267 268 269 271 273 274 275 276 276 277 278 279 278 276 275 273 273 275 277 277 277 278 281 284 286 286 284 283 283 282 280 280 279 277 275 274 271 269 268 268 270 269 268 267 268 268 268 269 269 268 268 268 267 266 266 268 269 270 271 270 269 268 267 267
253 253 253 253 253 253 253 253 253 253 254 255 257 258 260 261 261 261 262 263 264 265 266 267 269 270 271 272 272 272 275 278 279 278 276 275 273 271 273 275 276 278 279 283 286 286 283 281 279 278 278 277 278 278 278 276 273 270 269 267 268 270 270 268 268 269 270 272 273 274 272 269 267 266 265 265 268 271 274 275 273 270 269 269 268
255 255 255 255 255 255 255 255 255 255 255 256 257 258 260 261 262 263 263 263 264 264 265 266 267 268 269 269 269 270 272 275 277 277 275 274 272 269 268 272 276 277 281 287 289 287 283 281 278 276 275 274 274 274 275 274 273 272 271 269 267 267 267 266 268 270 272 275 276 277 275 269 264 263 264 265 270 275 278 280 277 272 269 269 268
256 256 256 256 256 256 256 257 257 257 258 259 259 259 261 262 263 264 265 265 266 267 267 267 268 268 268 268 269 269 269 269 270 270 269 268 267 265 267 271 273 274 279 285 286 284 282 281 280 278 275 273 271 271 271 272 273 274 274 272 269 268 268 268 269 270 273 275 276 277 276 270 263 263 266 268 272 276 279 280 278 274 270 268 267
258 257 257 257 257 257 257 257 258 258 259 260 261 262 262 263 264 265 265 266 267 268 268 269 269 269 269 269 270 270 269 268 266 264 264 264 263 262 265 268 269 270 273 274 272 272 275 278 279 277 274 271 271 270 269 270 272 273 273 272 271 271 271 271 271 273 274 275 276 276 276 273 267 266 268 271 274 278 279 278 276 272 270 269 268
259 259 258 258 258 258 258 258 259 259 259 260 261 262 263 263 264 264 265 265 265 266 267 267 268 268 268 269 269 270 270 269 268 266 265 265 264 263 263 265 267 267 268 268 267 268 270 273 274 273 271 271 272 272 271 271 272 272 272 272 272 273 274 275 276 276 277 277 277 276 276 274 271 270 271 273 277 280 280 277 273 270 267 266 266
261 261 261 260 260 260 260 259 260 260 261 261 261 262 262 263 263 264 264 264 264 264 264 265 266 267 267 268 268 269 269 269 270 269 269 269 268 266 266 267 268 269 270 270 270 270 271 272 271 269 268 269 271 272 272 273 274 274 273 272 272 273 276 278 279 279 279 278 277 277 277 276 274 273 274 276 279 280 280 278 275 272 269 267 266
265 265 264 263 263 262 261 261 261 262 262 262 263 263 263 263 263 263 263 263 263 263 264 264 265 266 266 267 268 268 268 268 268 269 269 270 269 269 269 269 270 270 270 270 270 270 271 271 269 266 265 266 268 270 271 272 274 274 273 273 273 274 275 277 279 280 280 279 279 278 278 278 277 277 277 278 279 279 279 279 278 276 274 272 270
270 270 269 268 267 266 266 265 264 263 263 263 263 263 263 263 263 263 263 263 264 264 264 265 265 265 266 267 268 268 268 268 268 267 267 267 268 268 268 269 269 268 268 267 267 267 267 266 265 264 264 265 267 268 268 270 270 271 271 272 273 274 275 276 277 278 279 280 281 280 280 280 280 280 281 281 282 282 282 282 281 279 278 277 275
274 273 273 273 272 272 271 269 268 265 264 263 263 263 263 264 264 264 264 264 265 265 266 266 266 267 267 268 268 269 269 269 268 268 267 267 267 267 267 267 267 267 267 267 265 264 262 261 261 263 265 267 268 268 269 269 270 270 271 271 273 274 275 275 276 276 277 279 280 280 281 281 281 282 282 283 283 283 283 283 282 281 279 278 277
274 275 275 275 274 275 274 274 272 271 269 268 267 267 267 267 268 268 267 267 267 267 267 267 268 268 269 269 269 270 270 270 269 269 268 268 268 268 267 267 267 267 267 265 264 263 263 263 263 264 265 267 267 268 269 271 271 272 272 273 273 273 274 275 276 277 278 279 279 279 279 280 280 281 281 282 282 283 283 283 282 281 280 279 279
271 272 272 272 273 274 274 275 276 276 276 276 275 275 274 273 273 273 272 272 271 270 270 270 270 270 270 270 270 271 271 271 270 269 269 269 269 269 268 268 268 267 266 265 264 265 265 266 266 266 267 267 268 269 270 271 272 273 274 273 273 273 274 275 276 277 278 279 279 279 279 279 280 280 281 282 282 282 282 283 283 283 283 283 282
269 269 270 270 271 272 274 275 276 277 278 279 279 278 278 276 275 274 274 273 272 272 272 271 271 271 271 271 271 271 271 272 273 272 271 271 271 271 270 270 268 266 264 265 266 267 267 267 268 268 268 269 270 271 272 272 272 273 273 274 274 275 275 275 276 277 277 278 278 279 279 280 281 282 282 282 282 283 283 283 283 284 284 284 284
269 269 270 271 271 272 273 274 275 276 277 277 278 278 278 277 277 276 275 274 273 273 272 271 271 271 270 270 271 271 272 272 273 273 273 273 273 274 274 273 270 267 265 265 266 266 266 267 268 269 269 269 270 271 271 272 272 273 274 275 276 276 276 276 276 277 278 278 279 280 281 281 282 282 282 282 283 283 283 284 284 285 285 285 285
266 266 267 267 268 269 270 270 271 272 272 273 273 274 274 274 275 275 274 274 273 272 271 270 270 270 270 270 270 270 270 270 270 271 272 273 273 273 273 272 272 270 269 268 267 265 265 266 266 267 267 268 268 269 269 270 272 273 274 275 275 276 276 277 277 278 279 279 280 280 280 280 281 281 282 282 283 283 284 284 285 285 286 286 286
266 265 265 265 265 265 266 267 267 268 269 269 270 270 271 271 271 271 271 271 271 270 269 268 268 268 268 268 267 267 266 266 266 267 268 269 269 269 269 269 271 273 273 272 271 269 269 268 268 268 268 268 268 268 269 270 271 272 273 273 274 275 276 277 277 278 279 279 280 280 280 280 281 281 282 282 283 284 285 286 286 286 286 286 286
271 270 270 270 270 270 270 270 271 271 271 272 272 272 272 272 272 272 272 272 271 270 270 269 268 268 267 267 265 265 264 264 264 264 265 266 266 266 266 267 269 272 275 275 274 274 273 272 271 271 270 269 269 269 270 270 271 271 272 272 273 274 275 276 276 277 278 278 279 279 279 280 280 281 282 283 284 285 286 286 286 286 286 286 286
273 273 273 272 272 273 273 273 273 273 274 274 274 275 275 275 274 273 273 272 271 271 270 269 269 268 268 267 266 264 264 264 264 264 265 265 264 263 263 265 267 269 271 273 274 274 274 273 273 272 272 271 271 270 270 270 271 271 271 272 273 274 274 275 275 276 277 277 278 278 279 279 280 281 282 283 284 285 285 285 286 286 286 287 287
272 272 273 273 273 273 273 273 273 273 274 274 275 275 275 275 275 274 274 273 272 272 270 269 268 268 268 267 266 265 264 264 264 264 265 265 265 264 262 263 264 267 269 270 271 272 272 272 272 272 272 272 272 271 271 272 272 272 273 273 274 274 274 274 275 275 276 276 277 278 278 279 280 281 282 283 284 285 285 286 287 288 288 289 289
271 272 272 272 272 273 273 273 274 274 274 274 274 274 274 274 275 275 274 273 273 272 270 269 268 267 267 267 266 265 264 263 263 263 264 264 265 265 264 263 263 264 265 266 267 268 269 270 271 272 272 272 272 272 273 273 274 274 274 274 274 274 275 275 275 275 276 276 277 277 278 279 280 281 282 283 283 284 285 286 287 288 289 290 292
271 272 272 272 272 273 273 274 274 274 275 275 275 275 275 274 274 274 274 273 272 272 271 270 269 268 267 266 266 265 263 262 261 262 262 262 262 263 264 264 264 263 264 265 266 267 268 268 269 270 270 271 272 273 273 274 274 274 274 274 274 274 274 275 276 276 276 277 277 277 278 279 280 281 282 282 283 285 286 287 288 289 291 292 293
272 272 272 273 273 273 274 274 274 274 274 274 275 274 274 273 273 273 273 273 272 272 271 270 269 268 267 266 265 264 263 261 260 259 259 260 260 261 262 264 265 265 265 265 265 266 267 267 267 268 269 271 272 272 273 273 273 273 274 273 273 273 274 274 275 275 276 276 277 278 279 280 280 281 282 283 284 285 286 287 289 290 292 293 293
273 273 273 273 273 273 274 274 274 274 274 274 273 273 273 273 272 272 272 272 272 272 271 270 269 268 266 265 264 263 262 261 259 257 257 257 259 260 263 265 266 265 264 263 263 264 265 266 267 268 269 270 271 271 271 271 271 271 272 272 273 274 274 275 275 275 276 276 277 278 278 279 280 281 282 283 284 285 287 288 290 291 292 293 294
273 273 273 274 274 274 274 274 273 273 273 273 273 273 272 272 272 271 272 272 272 272 271 270 269 268 266 264 263 262 261 260 258 257 257 257 258 261 263 265 266 265 264 262 262 262 264 265 266 268 269 270 270 270 270 270 270 271 271 272 273 274 274 275 276 276 276 277 277 278 278 279 280 281 282 283 285 286 287 289 291 292 293 293 293
274 275 275 275 275 275 275 274 274 274 274 274 274 274 274 273 273 273 273 272 272 271 270 269 268 267 265 263 261 260 259 259 258 257 257 258 259 260 262 263 264 264 263 263 263 263 264 265 266 267 268 268 269 269 270 271 271 272 272 272 273 273 273 274 274 275 275 275 276 277 278 279 280 281 282 284 285 287 288 289 290 291 291 291 291
276 276 276 276 276 276 276 276 276 275 275 275 275 275 275 274 274 274 273 272 270 269 268 267 266 265 263 262 260 259 259 258 258 257 258 258 259 260 261 262 263 263 264 265 265 265 264 264 264 265 266 266 267 268 269 270 271 272 272 272 272 272 272 273 273 273 273 274 275 276 277 278 279 281 282 284 285 286 287 288 288 289 289 289 290
276 276 277 277 277 276 276 276 276 276 276 276 276 276 276 275 275 274 273 271 270 268 267 266 265 263 262 261 260 259 258 258 258 259 258 258 259 259 260 261 262 263 264 264 264 264 264 264 264 265 265 266 266 267 268 269 270 271 271 271 271 271 271 271 271 271 272 273 274 275 276 277 278 280 281 283 284 284 284 285 286 287 287 288 289
276 277 277 277 277 277 278 278 278 277 277 277 277 277 277 277 276 275 274 272 271 269 267 266 263 262 261 261 260 259 259 258 259 259 258 258 258 257 257 258 260 261 262 263 264 265 265 266 266 266 266 266 267 268 269 270 270 270 270 269 269 269 269 269 269 270 270 271 272 273 274 275 277 278 280 281 281 281 282 283 285 286 286 287 288
277 278 278 278 278 278 278 278 278 278 278 278 279 279 278 277 277 275 274 273 272 270 268 266 265 263 263 262 261 260 260 259 258 258 257 258 258 257 257 258 260 261 262 263 264 264 264 266 267 267 267 268 269 269 269 270 270 270 268 267 266 266 267 267 267 268 269 270 270 271 273 274 276 277 278 278 279 280 281 283 284 285 285 286 288
277 277 278 278 278 278 278 278 278 279 279 280 279 279 278 278 277 276 274 272 271 270 270 269 267 265 263 261 261 262 262 261 259 258 257 257 257 258 258 258 258 259 259 260 262 262 263 265 267 267 267 267 268 268 268 268 268 267 266 264 264 264 265 266 267 268 269 269 270 271 272 273 274 275 276 277 278 280 281 282 284 284 285 286 287
277 277 277 277 277 277 277 278 278 279 280 279 279 278 278 277 276 275 274 272 271 270 269 268 267 265 263 263 263 262 261 260 258 256 255 255 255 256 256 256 255 255 256 258 261 263 263 263 264 265 266 265 265 265 266 266 265 263 261 261 262 264 265 266 267 268 268 269 270 272 273 273 274 275 276 277 278 279 280 282 283 284 284 285 285
276 276 276 276 277 277 278 278 279 279 279 279 278 278 278 277 276 275 274 273 271 269 268 267 266 265 266 266 263 259 256 256 256 255 255 254 254 254 255 255 254 254 255 257 260 262 262 261 262 263 264 263 263 264 264 264 262 260 260 260 262 264 265 265 266 267 268 270 271 271 272 273 273 274 275 276 277 278 280 281 282 283 283 283 283
276 276 276 276 277 278 278 279 280 280 280 279 278 278 278 277 276 275 274 273 271 270 268 267 267 267 266 265 261 257 255 256 257 257 256 256 256 255 255 254 253 253 254 256 258 260 260 260 259 260 260 261 262 263 262 261 260 259 259 260 261 262 263 264 265 267 268 269 270 270 271 271 272 273 274 275 276 277 279 280 281 282 281 281 281
276 276 277 277 278 278 279 280 280 280 280 280 279 279 278 277 276 275 274 273 271 270 269 268 267 266 264 262 260 259 258 258 258 258 257 257 257 255 254 253 252 253 255 256 258 259 259 258 256 256 256 257 257 257 257 256 256 257 258 259 260 260 261 263 264 265 266 267 268 268 269 270 270 271 272 274 275 276 278 279 280 279 279 279 279
277 277 277 278 278 279 280 281 281 281 280 280 280 279 279 278 278 277 275 274 272 271 270 269 268 266 264 263 262 262 260 259 258 258 258 258 257 256 254 253 253 253 254 255 255 256 256 255 253 252 251 250 250 250 251 252 253 255 256 257 257 258 259 261 262 263 264 264 265 266 267 268 269 270 271 272 273 275 276 277 277 277 277 278 278
277 277 278 279 280 281 282 282 281 281 281 281 281 281 280 279 279 278 277 275 273 272 270 269 268 266 264 263 262 260 258 257 257 257 257 257 255 254 253 253 253 253 253 253 253 252 252 252 249 245 241 240 242 244 247 249 251 253 254 254 255 256 257 259 260 261 261 262 263 264 265 266 267 268 269 271 272 274 275 275 275 275 275 276 277
277 278 279 280 281 282 283 283 283 282 282 282 283 283 282 282 280 280 278 276 275 273 271 270 268 266 264 263 261 258 257 256 256 256 255 254 253 253 253 253 253 253 253 252 249 246 242 239 234 231 229 231 234 239 243 247 249 250 251 252 253 254 256 257 258 259 259 260 261 262 263 264 266 267 268 270 271 272 273 273 272 272 273 274 276
278 279 281 282 284 285 285 285 284 284 283 283 283 283 283 283 281 280 279 278 276 274 272 270 268 266 265 263 261 259 257 255 254 253 251 251 251 252 253 252 251 249 247 244 240 234 229 225 223 222 222 225 229 235 241 244 246 247 249 251 252 253 254 255 256 257 258 259 259 261 262 263 264 266 267 268 269 270 270 270 270 271 272 273 274
280 282 283 284 285 286 286 286 286 285 284 284 282 282 282 282 281 280 279 278 277 274 272 270 268 266 265 263 262 260 258 255 253 252 250 250 250 250 249 249 248 245 242 237 233 228 225 223 222 221 222 224 228 233 238 242 245 248 250 252 252 253 254 254 255 255 256 257 258 259 261 262 263 264 266 267 267 267 267 267 268 269 270 271 273
281 283 284 285 286 286 286 285 285 284 284 284 282 281 280 281 281 281 280 278 277 276 274 272 270 267 265 264 263 261 258 255 253 252 251 250 249 249 248 247 246 243 239 236 233 231 230 229 229 229 229 231 233 237 241 245 248 249 250 251 251 252 253 253 253 254 254 255 256 258 259 260 262 263 264 264 264 264 264 265 265 266 268 269 271
281 282 284 285 285 285 284 283 283 283 283 283 282 280 278 278 279 281 281 280 278 276 276 275 273 269 266 264 263 261 259 256 253 251 249 248 247 247 246 244 242 239 236 235 233 233 233 234 234 234 235 237 239 242 245 246 248 248 249 249 250 251 251 252 252 252 253 254 255 257 257 259 260 261 262 262 261 261 261 262 263 264 265 267 268